User: anonymous   Login
Location: Drayton Valley
(53.2170°N, 114.9830°W)
Time: 16:31:34
(UTC-06:00)
Language:

MOZ.5/SAFIR/RUBIN 5/SL-8 - Orbit

View from above orbital plane
View from above orbital plane
View from above satellite
View from above satellite

Ground track
Ground track

The orbit data is extracted from the following two-line orbital elements,

1 28898U 05043G   17085.47735845 +.00000033 +00000-0 +16026-4 0  9996
2 28898 097.9131 238.8805 0021200 088.4475 271.9154 14.60169511231135
Epoch (UTC): 26 March 2017 11:27:23
Eccentricity: 0.0021200
inclination: 97.9131°
perigee height: 677 km
apogee height: 707 km
right ascension of ascending node: 238.8805°
argument of perigee: 88.4475°
revolutions per day: 14.60169511
mean anomaly at epoch: 271.9154°
orbit number at epoch: 23113

The dashed part of the orbit path shows where the satellite is in the earth's shadow,  

DLR